W6MAF Weather Reports


Display with metric or nautical units.
time (UTC)temp
F
wind
direction
speed
MPH
gust
MPH
rain 1hr
in
rain 24hr
in
rain mn
in
humidity
%
barometer
mb
20260510163614 82 347 4.0 0.0 0.00 0.00 0.00 4
20260510163115 82 0 0.0 0.0 0.00 0.00 0.00 5
20260510162618 82 340 2.0 5.0 0.00 0.00 0.00 5
20260510162206 81 37 0.0 0.0 0.00 0.00 0.00 5
20260510162120 81 37 0.0 0.0 0.00 0.00 0.00 5
20260510161619 81 37 5.0 1.0 0.00 0.00 0.00 5
20260510161121 81 48 0.0 0.0 0.00 0.00 0.00 5
20260510160624 80 48 2.0 0.0 0.00 0.00 0.00 5
20260510160126 80 42 0.0 0.0 0.00 0.00 0.00 5
20260510155628 79 32 0.0 0.0 0.00 0.00 0.00 6
20260510155131 79 14 0.0 0.0 0.00 0.00 0.00 6
20260510154630 78 56 1.0 0.0 0.00 0.00 0.00 6
20260510154132 78 17 0.0 0.0 0.00 0.00 0.00 6
20260510153634 77 45 0.0 0.0 0.00 0.00 0.00 6
20260510153137 77 260 0.0 0.0 0.00 0.00 0.00 6
20260510152639 76 260 0.0 0.0 0.00 0.00 0.00 6
20260510152142 76 260 0.0 0.0 0.00 0.00 0.00 6
20260510151640 75 260 0.0 0.0 0.00 0.00 0.00 7
20260510151143 75 260 0.0 0.0 0.00 0.00 0.00 7
20260510150645 74 260 0.0 0.0 0.00 0.00 0.00 8
20260510150147 73 260 0.0 0.0 0.00 0.00 0.00 8
20260510145650 72 260 0.0 0.0 0.00 0.00 0.00 10
20260510145152 72 260 0.0 0.0 0.00 0.00 0.00 11
20260510144651 71 260 0.0 0.0 0.00 0.00 0.00 12
20260510144153 70 260 0.0 0.0 0.00 0.00 0.00 12
20260510143656 69 260 0.0 0.0 0.00 0.00 0.00 14
20260510143158 68 260 0.0 0.0 0.00 0.00 0.00 17
20260510142700 67 260 0.0 0.0 0.00 0.00 0.00 19
20260510142202 66 260 0.0 0.0 0.00 0.00 0.00 20
20260510141701 65 260 0.0 0.0 0.00 0.00 0.00 20
20260510141204 64 260 0.0 0.0 0.00 0.00 0.00 22
20260510140706 64 260 0.0 0.0 0.00 0.00 0.00 22
20260510140208 63 260 0.0 0.0 0.00 0.00 0.00 23
20260510135711 62 260 0.0 0.0 0.00 0.00 0.00 22
20260510135213 62 260 0.0 0.0 0.00 0.00 0.00 22
20260510134712 61 260 0.0 0.0 0.00 0.00 0.00 21
20260510134214 61 278 1.0 2.0 0.00 0.00 0.00 23
20260510133717 60 298 3.0 3.0 0.00 0.00 0.00 23
20260510133219 60 294 3.0 3.0 0.00 0.00 0.00 23
20260510132721 59 281 4.0 4.0 0.00 0.00 0.00 23
20260510132224 59 280 5.0 5.0 0.00 0.00 0.00 23
20260510131723 58 263 6.0 6.0 0.00 0.00 0.00 23
20260510131225 58 274 7.0 7.0 0.00 0.00 0.00 23
20260510130727 58 270 6.0 6.0 0.00 0.00 0.00 23
20260510130230 58 257 6.0 6.0 0.00 0.00 0.00 23
20260510125732 57 273 7.0 7.0 0.00 0.00 0.00 23
20260510124733 57 239 0.0 0.0 0.00 0.00 0.00 25
20260510123738 57 267 6.0 6.0 0.00 0.00 0.00 26
20260510123240 58 277 5.0 5.0 0.00 0.00 0.00 26
20260510122742 58 267 6.0 6.0 0.00 0.00 0.00 27
20260510122245 58 269 0.0 6.0 0.00 0.00 0.00 27
20260510121744 59 243 0.0 0.0 0.00 0.00 0.00 28
20260510121247 59 243 0.0 0.0 0.00 0.00 0.00 28
20260510120748 60 243 0.0 0.0 0.00 0.00 0.00 28
20260510120251 60 243 0.0 0.0 0.00 0.00 0.00 28
20260510115753 60 243 0.0 0.0 0.00 0.00 0.00 27
20260510115255 60 243 0.0 0.0 0.00 0.00 0.00 27
20260510114754 60 243 0.0 0.0 0.00 0.00 0.00 28
20260510114257 60 243 0.0 0.0 0.00 0.00 0.00 29
20260510113759 59 243 0.0 0.0 0.00 0.00 0.00 30
20260510113302 59 243 0.0 0.0 0.00 0.00 0.00 32
20260510112804 59 243 0.0 0.0 0.00 0.00 0.00 33
20260510112306 59 243 0.0 0.0 0.00 0.00 0.00 35
20260510111805 58 243 0.0 0.0 0.00 0.00 0.00 36
20260510111307 58 243 0.0 0.0 0.00 0.00 0.00 37
20260510110810 58 243 0.0 0.0 0.00 0.00 0.00 38
20260510110312 58 245 3.0 2.0 0.00 0.00 0.00 38
20260510105814 58 240 3.0 2.0 0.00 0.00 0.00 38
20260510105317 58 229 5.0 5.0 0.00 0.00 0.00 39
20260510104318 58 225 4.0 3.0 0.00 0.00 0.00 40
20260510103821 58 218 7.0 6.0 0.00 0.00 0.00 40
20260510103322 58 224 7.0 7.0 0.00 0.00 0.00 39
20260510102826 58 224 7.0 7.0 0.00 0.00 0.00 39
20260510102327 58 232 7.0 6.0 0.00 0.00 0.00 39
20260510101826 58 222 6.0 6.0 0.00 0.00 0.00 38
20260510101329 58 228 6.0 7.0 0.00 0.00 0.00 37
20260510100831 58 219 7.0 7.0 0.00 0.00 0.00 37
20260510100333 59 224 6.0 7.0 0.00 0.00 0.00 36
20260510095836 59 219 6.0 6.0 0.00 0.00 0.00 36
20260510095338 59 214 6.0 6.0 0.00 0.00 0.00 36
20260510094837 59 243 7.0 7.0 0.00 0.00 0.00 35
20260510094339 59 222 6.0 6.0 0.00 0.00 0.00 35
20260510093842 59 218 7.0 7.0 0.00 0.00 0.00 34
20260510092847 60 224 6.0 6.0 0.00 0.00 0.00 34
20260510092348 60 210 7.0 6.0 0.00 0.00 0.00 34
20260510091847 60 225 6.0 7.0 0.00 0.00 0.00 34
20260510091350 60 225 6.0 5.0 0.00 0.00 0.00 33
20260510090852 60 215 6.0 8.0 0.00 0.00 0.00 34
20260510090354 60 233 7.0 7.0 0.00 0.00 0.00 34
20260510085857 60 235 7.0 7.0 0.00 0.00 0.00 34
20260510085359 61 211 7.0 5.0 0.00 0.00 0.00 33
20260510084858 61 224 7.0 8.0 0.00 0.00 0.00 34
20260510084400 61 207 8.0 5.0 0.00 0.00 0.00 34
20260510083946 60 204 8.0 5.0 0.00 0.00 0.00 34
20260510083903 60 204 8.0 5.0 0.00 0.00 0.00 34
20260510083405 60 210 8.0 8.0 0.00 0.00 0.00 33
20260510082907 60 225 7.0 8.0 0.00 0.00 0.00 34
20260510082409 60 219 7.0 7.0 0.00 0.00 0.00 34
20260510081909 61 231 7.0 6.0 0.00 0.00 0.00 34
20260510081411 61 218 9.0 9.0 0.00 0.00 0.00 34
20260510080913 61 225 7.0 9.0 0.00 0.00 0.00 34
20260510075918 61 211 7.0 6.0 0.00 0.00 0.00 34
20260510075420 61 221 7.0 8.0 0.00 0.00 0.00 34
20260510074919 61 200 6.0 9.0 0.00 0.00 0.00 34
20260510074421 61 229 7.0 8.0 0.00 0.00 0.00 34
20260510073923 61 239 7.0 6.0 0.00 0.00 0.00 34
20260510073426 61 190 7.0 5.0 0.00 0.00 0.00 33
20260510072928 61 236 7.0 7.0 0.00 0.00 0.00 33
20260510072430 61 224 8.0 9.0 0.00 0.00 0.00 34
20260510071929 62 197 7.0 7.0 0.00 0.00 0.00 34
20260510071432 62 246 8.0 6.0 0.00 0.00 0.00 33
20260510070934 62 212 8.0 8.0 0.00 0.00 0.00 33
20260510070436 62 232 10.0 9.0 0.00 0.00 0.00 32
20260510065939 62 235 11.0 10.0 0.00 0.00 0.00 32
20260510065442 62 236 9.0 8.0 0.00 0.00 0.00 31
20260510064941 62 239 10.0 9.0 0.00 0.00 0.00 30
20260510063944 63 235 10.0 9.0 0.00 0.00 0.00 29
20260510063447 63 226 10.0 12.0 0.00 0.00 0.00 30
20260510062949 63 239 11.0 12.0 0.00 0.00 0.00 30
20260510062451 63 221 10.0 12.0 0.00 0.00 0.00 30
20260510061950 63 231 10.0 10.0 0.00 0.00 0.00 30
20260510061454 63 222 11.0 11.0 0.00 0.00 0.00 29
20260510060955 64 229 13.0 16.0 0.00 0.00 0.00 28
20260510060459 64 228 11.0 0.0 0.00 0.00 0.00 28
20260510060457 64 228 11.0 14.0 0.00 0.00 0.00 28
20260510055541 64 200 11.0 9.0 0.00 0.00 0.00 28
20260510055502 64 200 11.0 9.0 0.00 0.00 0.00 28
20260510055001 64 235 10.0 10.0 0.00 0.00 0.00 28
20260510054503 64 235 11.0 14.0 0.00 0.00 0.00 28
20260510054005 64 242 10.0 9.0 0.00 0.00 0.00 28
20260510053508 64 255 12.0 11.0 0.00 0.00 0.00 28
20260510053010 64 232 12.0 12.0 0.00 0.00 0.00 28
20260510052513 64 219 15.0 11.0 0.00 0.00 0.00 28
20260510052011 64 229 14.0 11.0 0.00 0.00 0.00 28
20260510051513 65 239 12.0 12.0 0.00 0.00 0.00 28
20260510051016 65 226 15.0 15.0 0.00 0.00 0.00 28
20260510050520 65 242 14.0 11.0 0.00 0.00 0.00 28
20260510050518 65 242 14.0 11.0 0.00 0.00 0.00 28
20260510050020 65 236 14.0 14.0 0.00 0.00 0.00 28
20260510045523 65 222 17.0 17.0 0.00 0.00 0.00 29
20260510044524 65 231 15.0 12.0 0.00 0.00 0.00 28
20260510044026 65 205 16.0 15.0 0.00 0.00 0.00 27
20260510043528 66 226 14.0 17.0 0.00 0.00 0.00 28
20260510042533 66 226 14.0 15.0 0.00 0.00 0.00 26
20260510042032 66 224 11.0 12.0 0.00 0.00 0.00 26
20260510041534 67 210 12.0 16.0 0.00 0.00 0.00 25
20260510041037 67 217 15.0 17.0 0.00 0.00 0.00 26
20260510040539 67 217 16.0 18.0 0.00 0.00 0.00 23
20260510040041 67 210 16.0 16.0 0.00 0.00 0.00 23
20260510035543 67 214 15.0 17.0 0.00 0.00 0.00 23
20260510035042 68 231 15.0 22.0 0.00 0.00 0.00 21
20260510034545 68 222 15.0 15.0 0.00 0.00 0.00 21
20260510034047 68 221 17.0 13.0 0.00 0.00 0.00 21
20260510033549 68 215 14.0 11.0 0.00 0.00 0.00 21
20260510033052 68 214 16.0 17.0 0.00 0.00 0.00 20
20260510032554 68 222 15.0 16.0 0.00 0.00 0.00 19
20260510032054 68 211 15.0 13.0 0.00 0.00 0.00 19
20260510031555 69 218 14.0 14.0 0.00 0.00 0.00 19
20260510030600 69 210 13.0 16.0 0.00 0.00 0.00 16
20260510025604 69 212 14.0 13.0 0.00 0.00 0.00 16
20260510025103 69 219 14.0 10.0 0.00 0.00 0.00 15
20260510024605 70 229 14.0 10.0 0.00 0.00 0.00 14
20260510024108 70 224 13.0 8.0 0.00 0.00 0.00 14
20260510023610 70 205 16.0 9.0 0.00 0.00 0.00 15
20260510023112 70 204 16.0 16.0 0.00 0.00 0.00 14
20260510022614 71 212 16.0 15.0 0.00 0.00 0.00 16
20260510022113 71 222 12.0 14.0 0.00 0.00 0.00 18
20260510021616 72 218 16.0 20.0 0.00 0.00 0.00 21
20260510021118 73 232 15.0 14.0 0.00 0.00 0.00 20
20260510020620 73 214 13.0 17.0 0.00 0.00 0.00 18
20260510020122 74 228 10.0 8.0 0.00 0.00 0.00 17
20260510015626 74 207 15.0 15.0 0.00 0.00 0.00 16
20260510015125 75 226 11.0 7.0 0.00 0.00 0.00 15
20260510014627 75 217 14.0 14.0 0.00 0.00 0.00 14
20260510014128 76 217 14.0 9.0 0.00 0.00 0.00 12
20260510013631 76 226 12.0 18.0 0.00 0.00 0.00 11
20260510013133 76 219 13.0 11.0 0.00 0.00 0.00 10
20260510012636 76 191 12.0 12.0 0.00 0.00 0.00 9
20260510012134 77 219 14.0 24.0 0.00 0.00 0.00 8
20260510011636 77 197 13.0 10.0 0.00 0.00 0.00 7
20260510011139 77 222 14.0 9.0 0.00 0.00 0.00 7
20260510010641 78 159 14.0 13.0 0.00 0.00 0.00 7
20260510010143 78 219 14.0 13.0 0.00 0.00 0.00 6
20260510005645 79 218 14.0 21.0 0.00 0.00 0.00 6
20260510005144 79 200 16.0 17.0 0.00 0.00 0.00 6
20260510004647 79 208 14.0 14.0 0.00 0.00 0.00 6
20260510003651 80 219 16.0 9.0 0.00 0.00 0.00 6
20260510003153 80 222 16.0 13.0 0.00 0.00 0.00 6
20260510002655 80 221 11.0 16.0 0.00 0.00 0.00 5
20260510002156 81 212 14.0 15.0 0.00 0.00 0.00 5
20260510001657 81 232 16.0 17.0 0.00 0.00 0.00 5
20260510001159 81 212 13.0 15.0 0.00 0.00 0.00 5
20260510000701 82 226 13.0 16.0 0.00 0.00 0.00 5
20260510000204 82 226 10.0 15.0 0.00 0.00 0.00 4
20260509235706 82 224 14.0 13.0 0.00 0.00 0.00 4
20260509235205 83 210 11.0 13.0 0.00 0.00 0.00 4
20260509234707 83 204 9.0 19.0 0.00 0.00 0.00 4
20260509234209 83 219 12.0 12.0 0.00 0.00 0.00 4
20260509233712 83 238 9.0 15.0 0.00 0.00 0.00 4
20260509233214 84 204 9.0 12.0 0.00 0.00 0.00 3
20260509232716 84 219 10.0 12.0 0.00 0.00 0.00 4
20260509232215 84 222 13.0 10.0 0.00 0.00 0.00 4
20260509231718 84 226 11.0 13.0 0.00 0.00 0.00 4
20260509231219 85 232 12.0 12.0 0.00 0.00 0.00 4
20260509230722 85 228 13.0 18.0 0.00 0.00 0.00 3
20260509225727 85 229 13.0 16.0 0.00 0.00 0.00 4
20260509225225 85 232 11.0 13.0 0.00 0.00 0.00 4
20260509224728 86 207 12.0 10.0 0.00 0.00 0.00 4
20260509224230 86 201 10.0 7.0 0.00 0.00 0.00 4
20260509223732 86 197 9.0 9.0 0.00 0.00 0.00 4
20260509223234 86 221 7.0 8.0 0.00 0.00 0.00 3
20260509222737 86 197 9.0 9.0 0.00 0.00 0.00 3
20260509222237 86 232 13.0 14.0 0.00 0.00 0.00 4
20260509221738 86 219 14.0 14.0 0.00 0.00 0.00 4
20260509220745 86 205 11.0 9.0 0.00 0.00 0.00 4
20260509220245 86 257 8.0 3.0 0.00 0.00 0.00 4
20260509215747 86 228 11.0 9.0 0.00 0.00 0.00 4
20260509215246 85 236 13.0 16.0 0.00 0.00 0.00 4
20260509214250 85 232 13.0 11.0 0.00 0.00 0.00 4
20260509213753 85 238 14.0 11.0 0.00 0.00 0.00 4
20260509213255 85 233 12.0 18.0 0.00 0.00 0.00 4
20260509212757 85 208 15.0 7.0 0.00 0.00 0.00 4
20260509212256 85 214 17.0 11.0 0.00 0.00 0.00 4
20260509211758 85 211 14.0 7.0 0.00 0.00 0.00 4
20260509211301 85 194 11.0 11.0 0.00 0.00 0.00 4
20260509210803 85 224 14.0 13.0 0.00 0.00 0.00 4
20260509210305 85 235 14.0 18.0 0.00 0.00 0.00 4
20260509205808 85 210 13.0 13.0 0.00 0.00 0.00 4
20260509205307 85 205 14.0 13.0 0.00 0.00 0.00 4
20260509204809 85 228 14.0 7.0 0.00 0.00 0.00 4
20260509204311 85 239 13.0 6.0 0.00 0.00 0.00 4
20260509203813 85 195 12.0 10.0 0.00 0.00 0.00 4
20260509203316 85 243 10.0 5.0 0.00 0.00 0.00 4
20260509202818 84 235 13.0 10.0 0.00 0.00 0.00 4
20260509202317 84 240 14.0 12.0 0.00 0.00 0.00 4
20260509201819 84 225 10.0 15.0 0.00 0.00 0.00 4
20260509201322 84 221 8.0 10.0 0.00 0.00 0.00 5
20260509200824 85 229 11.0 13.0 0.00 0.00 0.00 5
20260509200326 85 242 12.0 10.0 0.00 0.00 0.00 5
20260509195828 85 214 12.0 12.0 0.00 0.00 0.00 5
20260509195327 86 212 8.0 12.0 0.00 0.00 0.00 4
20260509194830 86 238 11.0 14.0 0.00 0.00 0.00 4
20260509194332 86 184 11.0 11.0 0.00 0.00 0.00 4
20260509193835 86 221 8.0 13.0 0.00 0.00 0.00 4
20260509193337 86 225 12.0 14.0 0.00 0.00 0.00 4
20260509192839 86 218 10.0 11.0 0.00 0.00 0.00 5
20260509192828 86 232 8.0 11.0 0.00 0.00 0.00 4
20260509192338 86 232 8.0 11.0 0.00 0.00 0.00 4
20260509191840 86 256 8.0 4.0 0.00 0.00 0.00 4
20260509191342 86 229 11.0 13.0 0.00 0.00 0.00 5
20260509190845 85 231 6.0 5.0 0.00 0.00 0.00 5
20260509190347 86 239 8.0 7.0 0.00 0.00 0.00 5
20260509185849 86 245 7.0 3.0 0.00 0.00 0.00 5
20260509185348 86 211 8.0 9.0 0.00 0.00 0.00 4
20260509184851 86 224 7.0 10.0 0.00 0.00 0.00 5
20260509184353 86 226 9.0 8.0 0.00 0.00 0.00 5
20260509183856 86 228 3.0 7.0 0.00 0.00 0.00 4
20260509182900 86 224 5.0 8.0 0.00 0.00 0.00 4
20260509182359 86 273 2.0 0.0 0.00 0.00 0.00 3
20260509181902 86 69 2.0 4.0 0.00 0.00 0.00 3
20260509181404 85 44 0.0 0.0 0.00 0.00 0.00 3
20260509180906 85 44 0.0 0.0 0.00 0.00 0.00 3
20260509180409 84 250 1.0 0.0 0.00 0.00 0.00 3
20260509175911 84 262 0.0 0.0 0.00 0.00 0.00 3
20260509175410 84 304 3.0 3.0 0.00 0.00 0.00 3
20260509174912 83 6 0.0 0.0 0.00 0.00 0.00 3
20260509174414 83 340 2.0 3.0 0.00 0.00 0.00 3
20260509173917 83 349 3.0 0.0 0.00 0.00 0.00 3
20260509172921 82 162 0.0 0.0 0.00 0.00 0.00 4
20260509172420 82 162 0.0 0.0 0.00 0.00 0.00 4
20260509171425 81 225 1.0 0.0 0.00 0.00 0.00 4
20260509170927 80 233 0.0 0.0 0.00 0.00 0.00 4
20260509170430 80 321 0.0 0.0 0.00 0.00 0.00 4
20260509165932 79 321 2.0 0.0 0.00 0.00 0.00 4
20260509165431 79 18 0.0 5.0 0.00 0.00 0.00 5
20260509164933 79 328 3.0 2.0 0.00 0.00 0.00 4
20260509164436 79 14 0.0 0.0 0.00 0.00 0.00 5